Vertical_Velocity
-0 -2 1 -4 -1 -4 4 -4 -3 2 -3 -1 -4 -2 0 -1 0 -2 0 -0 -1 1 -1 -0 4 -2 0 -2 2 0 -2 -2 -1 1 0 1 1 0 -4 -7 5 3 2 -0 -4
-1 -0 -1 -2 -3 -1 -2 1 -4 0 -1 -2 -2 -2 -1 -3 1 -3 -1 -3 -1 0 -2 -1 3 -0 -1 -2 -1 3 0 -5 -2 3 1 0 1 -1 -5 4 7 1 -1 -5 0
-1 -1 0 2 -4 -2 -3 1 -5 -1 -2 -2 -1 -3 -2 -0 -0 -4 2 1 3 2 -1 -1 1 2 1 -3 -1 -2 1 3 1 -1 0 3 1 -1 -7 7 3 -2 6 -3 -1
-1 -1 -3 -3 -1 0 -4 -0 0 -2 -4 0 -2 -2 1 1 -5 1 1 1 2 -1 5 -7 2 1 2 -3 -2 -1 -0 -0 3 4 4 4 -1 -6 -2 3 -6 -2 2 6 2
-1 -3 1 -3 -2 1 -2 -3 -4 -2 1 -3 -4 2 -1 -1 -1 -0 -0 -1 -0 0 5 -3 -0 -1 3 2 -2 -3 0 -2 -2 3 1 -2 3 2 -1 -3 -0 0 -3 -2 2
-0 -2 0 -2 -2 1 -2 -1 -2 -3 1 -2 -2 -1 -3 -1 -2 -2 1 2 -0 -1 1 -1 -2 2 -3 2 3 -3 -2 2 4 2 -3 2 2 2 -2 -0 1 1 4 -3 -6
-2 -3 -0 -2 -2 1 -0 -3 -2 -2 -4 -1 0 -3 -3 14 -3 -2 -3 1 3 -0 2 -2 -4 1 1 2 -2 0 -0 -2 2 2 -1 -2 1 1 0 -1 -0 4 7 -1 -9
0 -1 -2 2 -2 -3 -1 0 -2 -4 -1 -3 1 -3 -5 3 1 -5 -0 2 -0 4 -1 -3 0 -2 -2 0 -2 4 -1 -1 -1 -4 3 1 -1 0 -1 -4 -5 -3 -1 1 -4
-1 3 -5 5 -4 2 -2 -2 -0 -0 -4 3 -5 1 2 -3 -4 3 -1 2 1 6 -1 0 0 -2 -3 0 1 -5 2 -1 -0 -2 1 -0 -2 -4 -7 -5 -9 -9 -2 -1 -2
4 3 -2 4 -6 -0 1 1 -6 1 3 -4 -2 -1 -1 -0 2 -2 -1 2 1 1 -0 2 1 -4 -1 1 -4 0 1 -1 -6 -3 4 -5 6 -2 -1 -9 -4 -2 -3 -1 -2
3 -3 -4 7 -6 3 -0 -1 1 -4 -3 3 -0 -1 3 1 -2 1 1 -1 -1 0 -1 3 3 -13 8 1 -2 -2 1 -2 1 -1 -6 -1 -2 2 -7 -4 -3 -4 -3 -2 -1
-1 -3 1 5 -2 4 -1 -3 -4 2 -9 0 2 -5 1 4 0 -4 4 1 2 1 0 1 -6 6 2 1 -2 3 0 -6 -2 1 5 -0 -8 -4 -0 -0 -1 -2 -3 -5 -3
1 0 3 1 0 5 -3 1 -3 3 -1 -5 -2 1 5 -3 -1 -2 6 3 -0 2 3 3 1 -1 2 -1 0 0 -5 0 3 -2 -1 1 -0 -2 -1 -5 -2 -4 -6 -5 -5
2 -1 4 1 4 0 1 -1 -4 3 -7 -7 -3 -2 -3 3 -8 1 4 -1 -2 2 5 1 1 2 2 -3 4 -2 2 1 1 2 -0 -2 -4 -1 1 -1 -1 1 1 -2 -3
-3 -3 8 7 -3 3 4 0 -1 2 1 0 3 1 -6 9 1 -2 2 -0 -1 6 -0 4 4 1 0 -2 5 -4 -1 1 1 -0 3 0 4 -0 -2 -1 -3 -3 -4 -4 -3
2 1 -0 2 7 -4 0 9 2 -1 -15 -4 6 3 -2 3 4 2 2 -0 3 4 2 -1 -1 -3 1 -1 -0 -0 -2 -1 -1 0 4 -4 1 5 -5 -2 -3 -3 -3 -4 -6
-4 -0 8 3 7 -3 4 6 4 -2 3 1 -2 -1 4 2 2 4 1 -1 -2 -4 -7 0 -6 0 5 4 2 4 -2 -1 1 2 -3 -1 4 -10 -5 -1 -2 -2 -1 -5 -6
-4 -7 -1 16 4 -0 4 7 3 5 5 3 -2 3 4 6 3 1 1 -1 1 -0 -1 -2 -3 -0 -2 -4 5 -0 0 -5 -2 -1 -0 0 -4 -6 -1 -2 -1 -2 -4 -4 -3
0 -7 -1 19 8 9 2 1 -16 -2 2 5 2 1 0 3 1 5 4 -1 4 -2 -4 -2 -4 -2 -0 0 5 -5 1 5 4 -0 3 -4 -7 -1 -4 -3 0 -3 -5 -4 -2
-1 8 -0 25 -1 8 15 -23 3 8 -3 0 -0 1 1 1 1 -1 -2 -5 -4 -4 6 2 1 0 1 4 2 1 2 -1 2 2 0 -2 -4 -7 -9 -2 -2 -3 -5 -3 -3
2 1 10 12 6 14 -16 -35 1 7 -3 2 -3 0 4 2 3 -3 4 7 2 -2 9 11 6 0 11 -10 -8 -2 -5 -3 1 -2 1 -0 -11 -2 -4 -2 -3 -4 -2 1 1
-2 -1 5 10 7 6 -31 -1 -5 -3 -0 1 1 -1 1 4 -0 -1 -2 4 1 6 3 0 5 4 -11 4 5 3 5 5 3 -2 -0 1 -34 -11 -3 -1 -0 -3 1 -1 -1
-7 2 1 9 -3 -10 5 -8 2 2 11 -0 -2 1 4 -0 1 1 1 3 6 1 3 -0 2 2 3 5 3 -0 -1 2 3 10 -9 8 -20 1 -3 -3 -1 -4 1 -0 -0
18 11 8 8 1 -2 4 -3 -4 8 1 -0 -3 6 -1 -3 -2 -6 3 -7 -5 0 3 5 -1 -0 -6 -2 -2 -1 2 7 14 9 -8 -13 -23 2 -4 -2 1 1 4 1 0
1 -4 -13 -16 -7 -9 9 1 4 -8 2 3 -8 -8 2 -4 4 -13 1 -1 -1 -5 -4 5 -4 6 2 6 2 -3 0 2 7 -7 6 -27 -10 10 -5 6 -8 1 5 2 -2
-10 -9 -0 2 7 5 5 -31 -6 12 0 -6 -10 3 3 -9 -1 -2 5 3 -2 -2 -0 -0 -15 1 -15 4 2 -7 -0 6 -4 -3 -8 1 -22 -2 3 -1 -4 2 4 -7 -0
-8 -1 5 -1 -2 20 -21 -20 -6 34 -3 3 3 6 -2 -4 3 11 6 2 1 -2 3 0 2 6 -21 5 6 5 -15 -3 0 1 9 -7 -6 -5 1 2 -2 5 -4 3 0
Height
3131 3131 3133 3134 3134 3134 3135 3135 3135 3135 3136 3135 3134 3133 3134 3134 3134 3133 3134 3134 3134 3134 3134 3134 3135 3136 3137 3138 3139 3139 3140 3140 3140 3141 3142 3142 3144 3145 3147 3148 3146 3145 3145 3145 3146
3126 3126 3128 3128 3129 3130 3131 3130 3131 3130 3131 3130 3130 3130 3130 3130 3130 3130 3131 3130 3130 3131 3132 3132 3133 3133 3135 3136 3136 3136 3135 3137 3138 3139 3139 3139 3140 3140 3143 3143 3142 3141 3142 3141 3141
3121 3121 3122 3123 3124 3124 3125 3125 3125 3125 3125 3125 3126 3127 3127 3126 3128 3128 3127 3127 3127 3128 3129 3130 3130 3131 3132 3133 3133 3133 3132 3133 3134 3134 3134 3136 3136 3135 3137 3137 3137 3138 3138 3138 3138
3114 3115 3115 3116 3117 3119 3119 3119 3120 3119 3120 3120 3121 3122 3124 3124 3127 3125 3124 3125 3126 3126 3126 3127 3127 3129 3128 3128 3129 3130 3129 3129 3130 3131 3131 3130 3130 3131 3131 3131 3129 3130 3131 3131 3132
3107 3108 3109 3110 3112 3112 3114 3114 3113 3113 3114 3115 3115 3117 3120 3121 3121 3122 3122 3122 3121 3122 3123 3123 3124 3125 3125 3124 3125 3125 3126 3126 3126 3126 3127 3125 3125 3123 3124 3125 3123 3123 3124 3123 3122
3100 3101 3102 3103 3105 3107 3107 3108 3107 3108 3108 3109 3109 3112 3114 3117 3115 3117 3118 3118 3118 3119 3118 3119 3120 3121 3122 3121 3121 3121 3121 3122 3123 3124 3122 3121 3121 3120 3119 3118 3118 3117 3118 3116 3114
3092 3094 3095 3097 3098 3101 3101 3101 3100 3102 3102 3103 3104 3106 3108 3112 3110 3112 3114 3113 3114 3114 3113 3114 3115 3117 3119 3117 3116 3115 3117 3118 3120 3120 3116 3117 3118 3117 3115 3113 3113 3113 3113 3110 3105
3083 3086 3087 3089 3090 3093 3094 3094 3094 3095 3095 3097 3099 3101 3102 3104 3105 3107 3108 3110 3110 3109 3108 3109 3110 3112 3115 3114 3112 3113 3112 3115 3115 3115 3113 3113 3112 3114 3112 3110 3110 3109 3107 3105 3098
3073 3076 3079 3081 3084 3086 3087 3087 3088 3089 3089 3092 3093 3096 3097 3098 3099 3101 3103 3104 3105 3105 3104 3105 3106 3108 3111 3110 3109 3109 3109 3110 3113 3111 3110 3109 3106 3109 3109 3105 3102 3102 3101 3098 3096
3064 3067 3070 3073 3076 3078 3079 3080 3081 3082 3084 3086 3088 3093 3093 3092 3093 3095 3098 3100 3101 3101 3102 3101 3100 3103 3105 3104 3105 3105 3104 3103 3107 3109 3105 3104 3103 3103 3103 3098 3098 3096 3093 3091 3091
3055 3058 3063 3065 3067 3070 3073 3076 3078 3077 3077 3080 3083 3085 3086 3086 3089 3092 3094 3096 3097 3097 3097 3096 3095 3096 3101 3101 3100 3101 3099 3099 3100 3104 3098 3097 3096 3097 3092 3091 3092 3090 3088 3086 3083
3047 3050 3054 3057 3060 3064 3066 3069 3070 3070 3069 3072 3073 3076 3080 3082 3085 3087 3089 3091 3092 3092 3091 3092 3089 3094 3094 3095 3096 3096 3096 3096 3096 3098 3094 3091 3090 3087 3086 3085 3085 3084 3083 3081 3078
3038 3042 3046 3050 3053 3059 3060 3063 3063 3067 3063 3063 3065 3067 3071 3074 3077 3080 3083 3082 3085 3086 3085 3085 3088 3089 3089 3091 3093 3092 3093 3092 3094 3093 3090 3087 3085 3084 3083 3080 3080 3080 3078 3076 3073
3031 3035 3039 3043 3050 3053 3055 3056 3060 3063 3061 3054 3055 3054 3059 3064 3066 3071 3074 3077 3079 3081 3082 3081 3083 3083 3085 3087 3089 3089 3090 3090 3089 3090 3089 3087 3085 3080 3078 3076 3075 3074 3073 3071 3068
3025 3029 3032 3036 3041 3047 3051 3054 3058 3060 3061 3049 3044 3044 3051 3058 3056 3061 3065 3067 3071 3074 3078 3079 3078 3078 3080 3083 3086 3086 3087 3087 3087 3086 3084 3084 3086 3069 3072 3071 3069 3070 3069 3066 3063
3016 3022 3026 3030 3035 3041 3045 3048 3054 3060 3047 3042 3042 3039 3048 3050 3052 3053 3059 3062 3067 3070 3071 3073 3074 3077 3078 3080 3083 3083 3085 3086 3084 3085 3080 3075 3078 3065 3066 3066 3065 3064 3062 3059 3057
3009 3013 3020 3024 3032 3034 3039 3043 3049 3044 3039 3038 3038 3041 3044 3047 3049 3051 3055 3057 3060 3066 3067 3069 3068 3073 3074 3076 3079 3080 3083 3085 3083 3082 3075 3072 3072 3063 3059 3060 3062 3061 3058 3056 3054
3001 3007 3013 3017 3022 3027 3033 3038 3037 3028 3032 3034 3035 3038 3042 3043 3045 3049 3051 3054 3057 3059 3061 3063 3065 3065 3068 3068 3071 3073 3078 3080 3074 3074 3072 3071 3065 3057 3057 3056 3057 3059 3057 3055 3054
2992 2996 3005 3011 3014 3019 3026 3029 3022 3022 3027 3032 3033 3036 3039 3041 3045 3046 3047 3051 3054 3056 3061 3060 3061 3061 3064 3064 3066 3068 3071 3073 3073 3072 3071 3065 3059 3053 3052 3053 3053 3055 3054 3052 3052
2983 2988 2994 3000 3007 3012 3017 3018 3017 3019 3025 3028 3031 3034 3035 3038 3041 3043 3044 3046 3050 3052 3056 3057 3059 3059 3060 3061 3062 3063 3066 3068 3069 3066 3062 3055 3054 3048 3047 3049 3049 3049 3049 3049 3049
2976 2979 2983 2991 2999 3004 3005 3006 3008 3013 3021 3026 3027 3029 3030 3033 3035 3038 3040 3044 3046 3048 3051 3052 3055 3056 3055 3054 3055 3058 3058 3061 3062 3061 3055 3050 3044 3043 3044 3044 3045 3045 3045 3045 3046
2965 2971 2976 2983 2990 2992 2996 2998 3004 3010 3016 3019 3022 3024 3026 3029 3032 3034 3037 3041 3042 3044 3044 3047 3048 3047 3047 3048 3049 3051 3051 3052 3054 3055 3052 3050 3039 3039 3041 3041 3042 3042 3041 3043 3044
2955 2964 2969 2975 2979 2984 2991 2993 2998 3004 3007 3012 3015 3017 3021 3025 3030 3030 3032 3035 3037 3039 3040 3043 3041 3042 3042 3043 3041 3041 3042 3044 3045 3045 3042 3046 3035 3033 3035 3036 3037 3038 3038 3039 3040
2946 2955 2961 2969 2974 2980 2985 2987 2992 2996 3001 3004 3009 3012 3015 3018 3023 3024 3026 3030 3033 3034 3036 3038 3036 3036 3035 3035 3036 3036 3036 3038 3038 3037 3036 3031 3032 3028 3031 3031 3033 3034 3034 3034 3035
2939 2944 2950 2957 2966 2974 2979 2982 2987 2990 2994 2999 3001 3004 3009 3012 3015 3016 3020 3023 3025 3027 3029 3031 3029 3031 3028 3029 3030 3029 3030 3031 3029 3029 3030 3021 3024 3024 3024 3025 3026 3030 3029 3029 3030
2932 2940 2944 2953 2959 2966 2972 2975 2980 2983 2989 2992 2994 2998 3002 3004 3008 3010 3013 3016 3017 3019 3020 3021 3021 3023 3020 3020 3022 3020 3020 3020 3021 3020 3018 3018 3012 3016 3018 3019 3019 3021 3023 3023 3025
2924 2935 2943 2948 2953 2959 2961 2966 2970 2978 2981 2985 2990 2993 2995 2998 3002 3004 3005 3007 3009 3011 3013 3014 3014 3014 3012 3014 3014 3012 3006 3009 3010 3010 3009 3008 3006 3008 3011 3011 3013 3015 3016 3017 3019